Hourly Data Report for May 11, 2020

KUGAARUK CLIMATE
NUNAVUT
Current Station Operator: ECCC - MSC

68°32'15.060" N
89°47'47.020" W
15.80 m
2303094
71407
NBB

Download Data

Hourly Data (May 2020)
Hourly Data Report for May 11, 2020
TIME
LST
Temp Definition
°C
Dew Point Definition
°C
Rel Hum Definition
%
Precip. Amount Definition
mm

Wind Dir Definition
10's deg

Wind Spd Definition
km/h
Visibility Definition
km
Stn Press Definition
kPa
Hmdx Definition


Wind Chill Definition


Weather Definition


00:00 -18.0 -20.2 83 0.0 27 8   102.58   -24 LegendNANA
01:00 -17.1 -19.2 84 0.0 25 12   102.52   -25 LegendNANA
02:00 -16.1 -18.3 83 0.0 26 18   102.48   -25 LegendNANA
03:00 -15.3 -17.7 82 0.0 25 19   102.43   -24 LegendNANA
04:00 -15.3 -17.8 81 0.0 26 19   102.38   -24 LegendNANA
05:00 -14.9 -17.6 80 0.0 26 16   102.34   -23 LegendNANA
06:00 -13.9 -16.6 80 0.0 26 13   102.31   -21 LegendNANA
07:00 -12.9 -15.8 79 0.0 24 12   102.26   -19 LegendNANA
08:00 -12.0 -15.3 77 0.0 26 13   102.21   -19 LegendNANA
09:00 -10.6 -14.4 73 0.0 29 8   102.18   -15 LegendNANA
10:00 -9.1 -13.8 69 0.0 36 17   102.12   -16 LegendNANA
11:00 -9.1 -13.9 68 0.0 36 16   102.08   -16 LegendNANA
12:00 -8.8 -13.4 70 0.0 35 15   102.04   -15 LegendNANA
13:00 -8.8 -13.0 72 0.0 2 15   102.03   -15 LegendNANA
14:00 -9.1 -12.9 74 0.0 1 22   101.99   -17 LegendNANA
15:00 -9.3 -13.5 71 0.0 1 22   101.92   -17 LegendNANA
16:00 -9.9 -13.9 73 0.0 2 20   101.88   -18 LegendNANA
17:00 -10.4 -14.1 74 0.0 2 20   101.84   -18 LegendNANA
18:00 -11.3 -14.7 75 0.0 1 16   101.79   -19 LegendNANA
19:00 -12.5 -15.3 79 0.0 2 17   101.70   -20 LegendNANA
20:00 -14.9 -17.6 80 0.0 1 7   101.63   -20 LegendNANA
21:00 -15.5 -17.6 84 0.0 2 13   101.57   -23 LegendNANA
22:00 -15.9 -17.5 88 0.0 8 5   101.53   -20 LegendNANA
23:00 -17.0 -18.6 88 0.0 6 2   101.48   -19 LegendNANA

Notes on Data Quality.

Legend

  • E = Estimated
  • M = Missing
  • NA = Not Available*
  • [empty] = Indicates an unobserved value
Date modified: